[[{"header":{"parameterUnit":"m.s-1","parameterCategory":1,"la1":30.2991,"la2":30.254,"lo1":-89.0895,"lo2":-89.0444,"dy":0.0017,"dx":0.0017,"nx":28,"ny":28,"refTime":"2025-04-04T09:00:00:Z","depth":0,"parameterNumber":2,"parameterNumberName":"U-component_of_WINDS"},"data":[0,0,0,0,0,0,0,0,0,0,0,0,0,0,0,0,0,0,0,0,0,0,0,0,0,0,0,0,0,0,0,0,0,0,0,0,0,0,0,0,0,0,0,0,0,0,0,0,0,0,0,0,0,0,0,0,0,0,-3.7846,-3.7847,0,-3.8,-3.8002,-3.8003,-3.8026,-3.8024,-3.8023,-3.8021,-3.8179,-3.8185,-3.819,0,0,0,0,0,0,0,0,0,0,0,0,0,-3.7572,-3.7577,-3.7846,-3.7848,-3.7849,-3.8,-3.8002,-3.8004,-3.8026,-3.8024,-3.8022,-3.8021,-3.8178,-3.8184,-3.8191,0,0,0,0,0,0,0,0,0,0,0,0,0,-3.7705,-3.7578,-3.7845,-3.7879,-3.7883,-3.7999,-3.8002,-3.8004,-3.8026,-3.8024,-3.8022,-3.802,-3.8175,-3.8183,-3.8192,-3.8285,0,0,-3.8217,-3.8221,0,0,0,0,0,0,0,0,-3.7697,-3.7715,-3.7872,-3.7876,-3.7882,-3.7991,-3.7963,-3.8099,-3.8027,-3.7972,-3.8021,-3.8019,-3.8119,-3.8131,-3.8165,-3.8293,-3.8299,-3.8218,-3.8223,-3.8226,-3.8229,0,0,0,0,0,0,0,-3.7688,-3.7708,-3.7907,-3.7874,-3.788,-3.7886,-3.7903,-3.7989,-3.8055,-3.7976,-3.7978,-3.7996,-3.8121,-3.8157,-3.8169,-3.8302,-3.8217,-3.8225,-3.823,-3.8233,-3.8516,-3.8518,0,0,0,0,0,0,-3.7673,-3.7701,-3.7902,-3.7911,-3.7782,-3.7893,-3.7911,-3.7958,-3.8054,-3.8067,-3.7998,-3.7997,-3.8144,-3.8159,-3.8174,-3.8291,-3.8226,-3.8234,-3.8239,-3.8513,-3.8516,-3.8519,0,0,0,0,0,0,-3.7667,-3.769,-3.7896,-3.7807,-3.7833,-3.79,-3.7952,-3.7962,-3.7998,-3.8071,-3.8083,-3.8023,-3.8143,-3.8163,-3.8258,-3.8296,-3.8238,-3.8245,-3.851,-3.8514,-3.8517,-3.8523,0,0,0,0,0,0,-3.7659,-3.7688,-3.7724,-3.7807,-3.7838,-3.7976,-3.7955,-3.7967,-3.8013,-3.8013,-3.8097,-3.8109,-3.8143,-3.8245,-3.8266,-3.8307,-3.8252,-3.8507,-3.8512,-3.8516,-3.852,-3.8527,-3.8533,0,0,0,0,0,-3.7649,-3.7719,-3.7725,-3.775,-3.7884,-3.7978,-3.7995,-3.8033,-3.8016,-3.8052,-3.8099,-3.8106,-3.8289,-3.8255,-3.8278,-3.8322,-3.8505,-3.851,-3.8516,-3.8517,-3.8525,-3.8532,0,0,0,0,0,0,-3.7638,-3.773,-3.7738,-3.7838,-3.79,-3.7981,-3.8028,-3.804,-3.8108,-3.8105,-3.815,-3.8168,-3.8261,-3.8302,-3.8262,-3.8419,-3.8396,-3.8406,-3.8388,-3.8397,-3.8403,-3.839,-3.8259,0,0,0,0,0,-3.7647,-3.7715,-3.7793,-3.7873,-3.7904,-3.7961,-3.8003,-3.8027,-3.8093,-3.8119,-3.8173,-3.8237,-3.8309,-3.8356,-3.8426,-3.8527,-3.8545,-3.8569,-3.8575,-3.858,-3.8588,-3.8645,-3.8656,-3.8538,-3.8537,-3.8537,0,0,-3.7666,-3.7725,-3.7766,-3.7872,-3.7923,-3.7993,-3.7983,-3.8057,-3.811,-3.8131,-3.8223,-3.8266,-3.834,-3.8438,-3.8484,-3.8475,-3.8625,-3.8587,-3.859,-3.8596,-3.8652,-3.8663,-3.8673,-3.8541,-3.8541,-3.854,0,0,-3.7737,-3.7789,-3.7861,-3.7913,-3.799,-3.8028,-3.8046,-3.8127,-3.8155,-3.8249,-3.8267,-3.8331,-3.8454,-3.8507,-3.8549,-3.8643,-3.8652,-3.8665,-3.8697,-3.8752,-3.8762,-3.877,-3.8803,-3.8814,-3.8673,-3.8673,-3.8673,0,-3.775,-3.7857,-3.7897,-3.7971,-3.8017,-3.8041,-3.8115,-3.8164,-3.826,-3.8292,-3.828,-3.8436,-3.8488,-3.8599,-3.8622,-3.8657,-3.8678,-3.8654,-3.8757,-3.8766,-3.8775,-3.8806,-3.8819,-3.8674,-3.8674,-3.8674,-3.8674,0,-3.787,-3.7943,-3.7993,-3.8086,-3.8138,-3.8212,-3.8264,-3.8313,-3.8333,-3.8372,-3.8469,-3.8532,-3.8616,-3.8645,-3.8665,-3.876,-3.8751,-3.8748,-3.8725,-3.8786,-3.8817,-3.8829,-3.8676,-3.8675,-3.8675,-3.8675,0,0,-3.7935,-3.8051,-3.8068,-3.8111,-3.82,-3.8257,-3.8333,-3.8416,-3.8456,-3.8523,-3.8588,-3.8693,-3.8691,-3.8739,-3.8766,-3.8815,-3.8885,-3.8806,-3.8808,-3.8817,-3.8993,-3.8993,-3.9007,-3.8892,-3.8895,-3.8897,-3.8986,0,-3.8015,-3.8149,-3.8189,-3.8302,-3.8371,-3.8396,-3.8462,-3.8524,-3.8564,-3.8629,-3.8673,-3.8746,-3.8738,-3.8768,-3.8817,-3.8866,-3.892,-3.886,-3.8952,-3.8955,-3.8931,-3.9023,-3.9024,-3.9105,-3.8999,-3.9001,-3.9002,0,-3.8125,-3.8194,-3.8314,-3.8396,-3.8426,-3.8484,-3.8564,-3.8626,-3.8697,-3.8723,-3.8778,-3.8802,-3.8883,-3.8858,-3.897,-3.8928,-3.8969,-3.8998,-3.9003,-3.9011,-3.8981,-3.9033,-3.9131,-3.9143,-3.9022,-3.902,-3.9019,0,-3.8159,-3.8283,-3.8371,-3.8407,-3.8504,-3.8545,-3.8587,-3.8656,-3.8704,-3.8774,-3.8805,-3.8884,-3.8927,-3.8988,-3.9032,-3.901,-3.914,-3.9119,-3.9164,-3.9163,-3.9188,-3.9185,-3.9293,-3.9217,-3.9217,-3.9217,-3.9217,0,-3.8243,-3.8315,-3.8387,-3.8441,-3.8524,-3.857,-3.865,-3.8694,-3.8756,-3.8819,-3.8847,-3.8906,-3.8961,-3.9028,-3.9064,-3.9151,-3.9171,-3.9194,-3.9202,-3.919,-3.9187,-3.9216,-3.9211,-3.922,-3.9219,-3.9219,-3.9218,0,-3.8294,-3.8345,-3.8442,-3.8527,-3.855,-3.8607,-3.868,-3.8734,-3.8776,-3.8856,-3.8877,-3.8943,-3.9023,-3.9074,-3.9177,-3.9201,-3.9296,-3.9303,-3.9272,-3.9275,-3.9317,-3.9311,-3.9445,-3.9465,-3.9377,-3.9378,-3.9378,0,-3.8343,-3.8399,-3.849,-3.8535,-3.8578,-3.8649,-3.8698,-3.8746,-3.8796,-3.8883,-3.8927,-3.9009,-3.9077,-3.9205,-3.9262,-3.9341,-3.9349,-3.9391,-3.9361,-3.9348,-3.9348,-3.9344,-3.935,-3.9395,-3.9395,-3.9396,-3.9396,0,-3.8424,-3.8447,-3.8517,-3.8596,-3.8654,-3.8718,-3.8783,-3.8818,-3.8877,-3.8933,-3.9015,-3.9068,-3.9173,-3.9254,-3.9339,-3.9383,-3.94,-3.9406,-3.942,-3.9408,-3.9387,-3.9398,-3.9283,-3.9402,-3.9401,-3.9401,-3.9401,-3.94,-3.8475,-3.8527,-3.8599,-3.8676,-3.873,-3.879,-3.8845,-3.8894,-3.8964,-3.9053,-3.9078,-3.9164,-3.9237,-3.9351,-3.9398,-3.9467,-3.9461,-3.9482,-3.9487,-3.9491,-3.9491,-3.9377,-3.9483,-3.9482,-3.9482,-3.9482,-3.9482,0,-3.8557,-3.8605,-3.8676,-3.8766,-3.8826,-3.8838,-3.8911,-3.8961,-3.9036,-3.9102,-3.9169,-3.9265,-3.9345,-3.9409,-3.9491,-3.9534,-3.9544,-3.9554,-3.955,-3.956,-3.9492,-3.9471,-3.9545,-3.9545,-3.9545,-3.9545,-3.9545,-3.9544,-3.8607,-3.8694,-3.8726,-3.8842,-3.889,-3.8975,-3.9015,-3.9071,-3.9124,-3.923,-3.9296,-3.9338,-3.9404,-3.9492,-3.9566,-3.9583,-3.9611,-3.9619,-3.9638,-3.9572,-3.9565,-3.9558,-3.9538,-3.9626,-3.9626,-3.97,-3.9701,-3.9702]},{"header":{"parameterUnit":"m.s-1","parameterCategory":1,"la1":30.2991,"la2":30.254,"lo1":-89.0895,"lo2":-89.0444,"dy":0.0017,"dx":0.0017,"nx":28,"ny":28,"refTime":"2025-04-04T09:00:00:Z","depth":0,"parameterNumber":3,"parameterNumberName":"V-component_of_WINDS"},"data":[0,0,0,0,0,0,0,0,0,0,0,0,0,0,0,0,0,0,0,0,0,0,0,0,0,0,0,0,0,0,0,0,0,0,0,0,0,0,0,0,0,0,0,0,0,0,0,0,0,0,0,0,0,0,0,0,0,0,3.8069,3.807,0,3.8105,3.8105,3.8106,3.8093,3.8092,3.8091,3.809,3.8125,3.8127,3.8128,0,0,0,0,0,0,0,0,0,0,0,0,0,3.7992,3.7993,3.8069,3.807,3.807,3.8105,3.8105,3.8106,3.8093,3.8092,3.8091,3.809,3.8124,3.8126,3.8128,0,0,0,0,0,0,0,0,0,0,0,0,0,3.8026,3.7994,3.8069,3.8068,3.8068,3.8105,3.8105,3.8106,3.8093,3.8092,3.8091,3.8089,3.8124,3.8126,3.8129,3.8168,0,0,3.8136,3.8137,0,0,0,0,0,0,0,0,3.8024,3.8029,3.8068,3.8068,3.8069,3.8093,3.809,3.8127,3.8093,3.8084,3.809,3.8089,3.8115,3.8118,3.8128,3.817,3.8171,3.8136,3.8138,3.8139,3.814,0,0,0,0,0,0,0,3.8022,3.8027,3.8083,3.8068,3.8069,3.8066,3.807,3.8097,3.8106,3.8084,3.8083,3.8088,3.8115,3.8125,3.8128,3.8172,3.8136,3.8139,3.814,3.8141,3.8251,3.8252,0,0,0,0,0,0,3.8019,3.8025,3.8082,3.8084,3.8043,3.8068,3.8072,3.8086,3.8105,3.8107,3.8089,3.8087,3.8121,3.8125,3.8129,3.8179,3.8139,3.8141,3.8143,3.8249,3.8251,3.8253,0,0,0,0,0,0,3.8018,3.8024,3.8081,3.8055,3.8062,3.8071,3.8087,3.8088,3.8098,3.8109,3.811,3.8098,3.8121,3.8126,3.8159,3.818,3.8143,3.8145,3.8248,3.825,3.8252,3.8277,0,0,0,0,0,0,3.8015,3.8024,3.8038,3.8055,3.8063,3.811,3.8088,3.8089,3.8102,3.81,3.8117,3.8119,3.812,3.8156,3.8162,3.8183,3.8147,3.8246,3.8249,3.8251,3.8274,3.8279,3.8284,0,0,0,0,0,3.8013,3.8043,3.8039,3.8046,3.8082,3.8111,3.8116,3.8117,3.8104,3.8119,3.8127,3.8118,3.8177,3.8159,3.8166,3.8188,3.8245,3.8248,3.8251,3.8272,3.8278,3.8284,0,0,0,0,0,0,3.8027,3.8045,3.8041,3.8078,3.8093,3.8109,3.8128,3.8123,3.8142,3.814,3.814,3.8144,3.8179,3.8186,3.8167,3.8228,3.8209,3.8213,3.8222,3.8229,3.8233,3.8231,3.8149,0,0,0,0,0,3.8035,3.8057,3.8072,3.8103,3.8111,3.8118,3.8131,3.8131,3.8147,3.8153,3.8163,3.8178,3.82,3.8215,3.8235,3.8275,3.828,3.8294,3.8299,3.8303,3.8307,3.8331,3.8339,3.8263,3.8263,3.8263,0,0,3.805,3.8063,3.8077,3.8106,3.8118,3.8142,3.8124,3.8149,3.8167,3.8156,3.8189,3.8197,3.8215,3.8253,3.8269,3.826,3.8329,3.8307,3.831,3.8312,3.8335,3.8343,3.8349,3.8265,3.8265,3.8265,0,0,3.8092,3.8103,3.8131,3.8144,3.8163,3.8168,3.8175,3.8192,3.8198,3.8231,3.8225,3.8246,3.8283,3.8297,3.8309,3.8359,3.8353,3.8365,3.8391,3.8415,3.8421,3.8426,3.8446,3.8453,3.8369,3.8369,3.8369,0,3.8109,3.8144,3.8146,3.8173,3.8187,3.818,3.821,3.8222,3.8247,3.8257,3.8246,3.8295,3.8306,3.8348,3.836,3.8369,3.8378,3.8363,3.842,3.8425,3.843,3.8449,3.8457,3.8371,3.8371,3.8371,3.8371,0,3.8166,3.8191,3.8212,3.8237,3.8253,3.8281,3.8288,3.8304,3.8304,3.831,3.8346,3.8359,3.8384,3.8394,3.8392,3.8436,3.843,3.842,3.84,3.8439,3.8457,3.8464,3.8373,3.8373,3.8372,3.8372,0,0,3.8216,3.8244,3.8252,3.8265,3.8287,3.8306,3.8335,3.836,3.8375,3.8393,3.8418,3.8451,3.8442,3.8456,3.8456,3.8477,3.8519,3.8464,3.8465,3.8475,3.8571,3.858,3.8588,3.8515,3.8516,3.8517,3.857,0,3.826,3.8311,3.8315,3.8361,3.8386,3.8381,3.8406,3.8423,3.8431,3.8453,3.8461,3.8485,3.8471,3.848,3.85,3.8509,3.8538,3.8505,3.8539,3.854,3.8536,3.8597,3.8606,3.8656,3.8577,3.8578,3.8579,0,3.8319,3.834,3.839,3.8411,3.8421,3.8444,3.8469,3.849,3.8509,3.8513,3.853,3.8528,3.8559,3.8538,3.8581,3.8559,3.8573,3.858,3.8582,3.8586,3.8563,3.8604,3.8671,3.8679,3.859,3.8589,3.8588,0,3.8353,3.8394,3.843,3.8441,3.8465,3.8482,3.8493,3.8511,3.8527,3.8549,3.856,3.8584,3.8598,3.8618,3.8623,3.8607,3.8667,3.8646,3.8672,3.8673,3.8686,3.8685,3.8757,3.8692,3.8692,3.8692,3.8692,0,3.8403,3.8434,3.8446,3.8468,3.8503,3.8508,3.8542,3.8552,3.8569,3.8594,3.859,3.8613,3.8619,3.8643,3.8647,3.8684,3.8689,3.8695,3.8696,3.8696,3.8696,3.8706,3.8703,3.8694,3.8694,3.8693,3.8693,0,3.8448,3.8457,3.8496,3.8517,3.8523,3.8548,3.8567,3.8589,3.8597,3.8628,3.8635,3.8648,3.8677,3.8684,3.8718,3.8721,3.8765,3.8762,3.8759,3.8759,3.8786,3.8784,3.8869,3.8881,3.8806,3.8807,3.8808,0,3.848,3.8504,3.8529,3.8546,3.8558,3.8584,3.8602,3.8607,3.8625,3.8651,3.867,3.8699,3.8722,3.8769,3.8781,3.8807,3.8806,3.8834,3.881,3.881,3.8809,3.8808,3.8812,3.8839,3.8839,3.884,3.884,0,3.8537,3.8541,3.8566,3.8593,3.8614,3.8635,3.8656,3.867,3.8679,3.8699,3.873,3.8748,3.8784,3.8813,3.8841,3.8852,3.8849,3.8848,3.8856,3.8857,3.8855,3.8859,3.8773,3.8846,3.8846,3.8845,3.8845,3.8845,3.8578,3.86,3.8622,3.865,3.8667,3.8687,3.871,3.8721,3.8747,3.8778,3.8779,3.8813,3.8834,3.887,3.8884,3.8911,3.8902,3.8913,3.8916,3.8919,3.8923,3.885,3.8915,3.8915,3.8915,3.8915,3.8915,0,3.8636,3.8651,3.8677,3.8707,3.873,3.8726,3.8749,3.8769,3.8798,3.8819,3.8843,3.8879,3.8908,3.8923,3.8952,3.8971,3.897,3.8978,3.8978,3.8981,3.8927,3.8919,3.8979,3.8979,3.8979,3.8979,3.8979,3.8979,3.867,3.8708,3.8715,3.8763,3.8777,3.8811,3.8825,3.8844,3.886,3.8901,3.8926,3.8936,3.8955,3.8986,3.9013,3.9017,3.9028,3.9038,3.9041,3.8991,3.8985,3.8978,3.897,3.904,3.904,3.9093,3.9093,3.9094]}]]